When you browse on this site, cookies collect data to enhance your experience and personalize the content and advertising you see.
Visit our Privacy Policy to learn more. By continuing to use the site, you agree to this use of cookies and data.
  • In Latvia
  • List of Countries
  • For 7 days
  • Water Temperature
  • Weather Map
  • Weather Widgets
  • user-avatar
    Login

    Hourly Weather Wien

    Today, 7 April, Tuesday

    Time Temperature Precipitation Wind Pressure Humidity
    00:00 +8°C° 0 mm 5 mps 755 mmHg 48%
    01:00 +7°C° 0 mm 4 mps 755 mmHg 50%
    02:00 +7°C° 0 mm 4 mps 755 mmHg 49%
    03:00 +6°C° 0 mm 4 mps 755 mmHg 49%
    04:00 +7°C° 0 mm 3 mps 755 mmHg 48%
    05:00 +7°C° 0 mm 3 mps 755 mmHg 49%
    06:00 +7°C° 0 mm 4 mps 756 mmHg 50%
    07:00 +7°C° 0 mm 4 mps 756 mmHg 51%
    08:00 +10°C° 0 mm 4 mps 756 mmHg 45%
    09:00 +12°C° 0 mm 4 mps 756 mmHg 40%
    10:00 +14°C° 0 mm 5 mps 756 mmHg 35%
    11:00 +15°C° 0 mm 5 mps 756 mmHg 33%
    12:00 +16°C° 0 mm 5 mps 755 mmHg 30%
    13:00 +17°C° 0 mm 6 mps 755 mmHg 27%
    14:00 +17°C° 0 mm 6 mps 755 mmHg 28%
    15:00 +17°C° 0 mm 5 mps 754 mmHg 29%
    16:00 +17°C° 0 mm 5 mps 754 mmHg 29%
    17:00 +15°C° 0 mm 5 mps 754 mmHg 34%
    18:00 +13°C° 0 mm 4 mps 754 mmHg 38%
    19:00 +11°C° 0 mm 4 mps 754 mmHg 42%
    20:00 +11°C° 0 mm 4 mps 755 mmHg 44%
    21:00 +10°C° 0 mm 4 mps 755 mmHg 45%
    22:00 +9°C° 0 mm 3 mps 755 mmHg 47%
    23:00 +8°C° 0 mm 3 mps 755 mmHg 48%

    Tomorrow, 8 April, Wednesday

    Time Temperature Precipitation Wind Pressure Humidity
    00:00 +8°C° 0 mm 3 mps 755 mmHg 48%
    01:00 +7°C° 0 mm 3 mps 755 mmHg 49%
    02:00 +5°C° 0 mm 3 mps 755 mmHg 50%
    03:00 +6°C° 0 mm 2 mps 754 mmHg 51%
    04:00 +5°C° 0 mm 2 mps 754 mmHg 52%
    05:00 +5°C° 0 mm 3 mps 754 mmHg 51%
    06:00 +7°C° 0 mm 3 mps 754 mmHg 50%
    07:00 +7°C° 0 mm 3 mps 754 mmHg 50%
    08:00 +10°C° 0 mm 3 mps 753 mmHg 43%
    09:00 +12°C° 0 mm 4 mps 753 mmHg 37%
    10:00 +15°C° 0 mm 5 mps 753 mmHg 31%
    11:00 +16°C° 0 mm 5 mps 753 mmHg 29%
    12:00 +17°C° 0 mm 5 mps 752 mmHg 27%
    13:00 +19°C° 0 mm 5 mps 752 mmHg 25%
    14:00 +19°C° 0 mm 5 mps 751 mmHg 27%
    15:00 +19°C° 0 mm 5 mps 751 mmHg 29%
    16:00 +19°C° 0 mm 5 mps 750 mmHg 31%
    17:00 +16°C° 0 mm 5 mps 750 mmHg 37%
    18:00 +14°C° 0 mm 4 mps 750 mmHg 42%
    19:00 +12°C° 0 mm 4 mps 750 mmHg 47%
    20:00 +12°C° 0 mm 3 mps 750 mmHg 48%
    21:00 +11°C° 0 mm 3 mps 750 mmHg 50%
    22:00 +10°C° 0 mm 3 mps 750 mmHg 51%
    23:00 +9°C° 0 mm 2 mps 750 mmHg 53%

    Day after tomorrow, 9 April, Thursday

    Time Temperature Precipitation Wind Pressure Humidity
    00:00 +9°C° 0 mm 2 mps 750 mmHg 55%
    01:00 +9°C° 0 mm 1 mps 749 mmHg 57%
    02:00 +9°C° 0 mm 1 mps 749 mmHg 58%
    03:00 +8°C° 0 mm 1 mps 749 mmHg 59%
    04:00 +8°C° 0 mm 1 mps 749 mmHg 60%
    05:00 +8°C° 0 mm 1 mps 749 mmHg 59%
    06:00 +9°C° 0 mm 1 mps 749 mmHg 58%
    07:00 +10°C° 0 mm 1 mps 749 mmHg 56%
    08:00 +12°C° 0 mm 1 mps 748 mmHg 51%
    09:00 +14°C° 0 mm 1 mps 748 mmHg 46%
    10:00 +16°C° 0 mm 1 mps 748 mmHg 41%
    11:00 +19°C° 0 mm 1 mps 748 mmHg 39%
    12:00 +20°C° 0 mm 1 mps 748 mmHg 37%
    13:00 +21°C° 0 mm 2 mps 747 mmHg 35%
    14:00 +21°C° 0 mm 2 mps 747 mmHg 37%
    15:00 +21°C° 0 mm 2 mps 747 mmHg 39%
    16:00 +21°C° 0 mm 2 mps 747 mmHg 40%
    17:00 +19°C° 0 mm 2 mps 747 mmHg 45%
    18:00 +18°C° 0 mm 1 mps 747 mmHg 50%
    19:00 +16°C° 0 mm 1 mps 747 mmHg 55%
    20:00 +15°C° 0 mm 1 mps 747 mmHg 57%
    21:00 +14°C° 0 mm 1 mps 747 mmHg 60%
    22:00 +14°C° 0 mm 1 mps 748 mmHg 63%
    23:00 +13°C° 0 mm 2 mps 748 mmHg 65%

    10 April, Friday

    Time Temperature Precipitation Wind Pressure Humidity
    00:00 +13°C° 0 mm 2 mps 748 mmHg 67%
    01:00 +12°C° 0 mm 2 mps 748 mmHg 69%
    02:00 +12°C° 0 mm 2 mps 748 mmHg 70%
    03:00 +12°C° 0 mm 2 mps 748 mmHg 72%
    04:00 +12°C° 0 mm 2 mps 748 mmHg 74%
    05:00 +12°C° 0 mm 2 mps 748 mmHg 73%
    06:00 +13°C° 0 mm 2 mps 749 mmHg 73%
    07:00 +13°C° 0 mm 2 mps 749 mmHg 73%
    08:00 +14°C° 0 mm 2 mps 749 mmHg 69%
    09:00 +15°C° 0 mm 2 mps 749 mmHg 65%
    10:00 +16°C° 0 mm 2 mps 749 mmHg 62%
    11:00 +17°C° 0 mm 2 mps 749 mmHg 58%
    12:00 +18°C° 0 mm 2 mps 748 mmHg 54%
    13:00 +19°C° 0 mm 3 mps 748 mmHg 50%
    14:00 +19°C° 0 mm 3 mps 748 mmHg 50%
    15:00 +19°C° 0 mm 3 mps 747 mmHg 50%
    16:00 +19°C° 0 mm 3 mps 747 mmHg 50%
    17:00 +17°C° 0 mm 2 mps 747 mmHg 55%
    18:00 +16°C° 0 mm 2 mps 747 mmHg 60%
    19:00 +14°C° 0 mm 1 mps 747 mmHg 65%
    20:00 +14°C° 0 mm 1 mps 747 mmHg 66%
    21:00 +13°C° 0 mm 1 mps 747 mmHg 67%
    22:00 +13°C° 0 mm 1 mps 748 mmHg 69%
    23:00 +12°C° 0 mm 1 mps 747 mmHg 70%

    11 April, Saturday

    Time Temperature Precipitation Wind Pressure Humidity
    00:00 +12°C° 0 mm 1 mps 747 mmHg 71%
    01:00 +12°C° 0 mm 1 mps 747 mmHg 72%
    02:00 +11°C° 0 mm 1 mps 747 mmHg 73%
    03:00 +11°C° 0 mm 1 mps 747 mmHg 73%
    04:00 +11°C° 0 mm 1 mps 747 mmHg 74%
    05:00 +11°C° 0 mm 1 mps 747 mmHg 72%
    06:00 +12°C° 0 mm 1 mps 747 mmHg 71%
    07:00 +12°C° 0 mm 1 mps 747 mmHg 69%
    08:00 +14°C° 0 mm 1 mps 747 mmHg 64%
    09:00 +15°C° 0 mm 1 mps 747 mmHg 60%
    10:00 +18°C° 0 mm 1 mps 747 mmHg 55%
    11:00 +19°C° 0 mm 1 mps 747 mmHg 52%
    12:00 +19°C° 0 mm 2 mps 746 mmHg 50%
    13:00 +20°C° 0 mm 2 mps 746 mmHg 47%
    14:00 +20°C° 0 mm 2 mps 746 mmHg 47%
    15:00 +20°C° 0 mm 2 mps 745 mmHg 48%
    16:00 +20°C° 0 mm 2 mps 745 mmHg 48%
    17:00 +19°C° 0 mm 2 mps 745 mmHg 54%
    18:00 +17°C° 0 mm 2 mps 745 mmHg 59%
    19:00 +16°C° 0 mm 2 mps 745 mmHg 65%
    20:00 +15°C° 0 mm 2 mps 745 mmHg 68%
    21:00 +15°C° 0 mm 2 mps 745 mmHg 70%
    22:00 +14°C° 0 mm 2 mps 745 mmHg 72%
    23:00 +14°C° 0 mm 2 mps 745 mmHg 74%

    12 April, Sunday

    Time Temperature Precipitation Wind Pressure Humidity
    00:00 +13°C° 0 mm 2 mps 744 mmHg 77%
    01:00 +13°C° 0 mm 2 mps 744 mmHg 79%
    02:00 +12°C° 0 mm 1 mps 744 mmHg 81%
    03:00 +12°C° 0 mm 1 mps 744 mmHg 83%
    04:00 +11°C° 0 mm 1 mps 744 mmHg 86%
    05:00 +12°C° 0 mm 1 mps 744 mmHg 83%
    06:00 +13°C° 0 mm 2 mps 744 mmHg 81%
    07:00 +13°C° 0 mm 2 mps 744 mmHg 78%
    08:00 +15°C° 0 mm 2 mps 744 mmHg 71%
    09:00 +16°C° 0 mm 3 mps 743 mmHg 65%
    10:00 +18°C° 0 mm 3 mps 743 mmHg 58%
    11:00 +19°C° 0 mm 3 mps 743 mmHg 55%
    12:00 +19°C° 0 mm 3 mps 742 mmHg 53%
    13:00 +20°C° 0 mm 3 mps 742 mmHg 50%
    14:00 +20°C° 0.4 mm 3 mps 741 mmHg 53%
    15:00 +19°C° 0.4 mm 3 mps 741 mmHg 56%
    16:00 +19°C° 0.4 mm 3 mps 740 mmHg 59%
    17:00 +17°C° 0.7 mm 4 mps 740 mmHg 64%
    18:00 +15°C° 0.7 mm 4 mps 740 mmHg 70%
    19:00 +14°C° 0.7 mm 5 mps 740 mmHg 75%
    20:00 +13°C° 0 mm 5 mps 740 mmHg 75%
    21:00 +13°C° 0 mm 5 mps 740 mmHg 74%
    22:00 +13°C° 0 mm 5 mps 740 mmHg 74%
    23:00 +12°C° 0 mm 5 mps 740 mmHg 75%
    Show more